NOAA NWS Hourly Roundups by Site

Regional Weather Roundup for Detroit, MI

To Select Another Site Choose from List

Select Site:  

000
ASUS43 KDTX 012310
RWRMI
MICHIGAN HOURLY REGIONAL WEATHER ROUNDUP
NATIONAL WEATHER SERVICE DETROIT/PONTIAC MI
600 PM EST WED DEC 01 2021

NOTE: "FAIR" INDICATES FEW OR NO CLOUDS BELOW 12,000 FEET WITH NO
SIGNIFICANT WEATHER AND/OR OBSTRUCTION TO VISIBILITY.

MIZ047>049-052>055-059>063-066>070-074>076-081>083-020000-
SOUTHEAST LOWER MICHIGAN

CITY           SKY/WX    TMP DP  RH WIND       PRES   REMARKS
ADRIAN         CLOUDY    41  39  93 S5        29.87F
ALMA           CLOUDY    37  33  85 S6        29.81R WCI  33
ANN ARBOR      CLOUDY    37  34  89 SE6       29.86F FOG     WCI  32
BAD AXE        CLOUDY    36  33  88 S13       29.81F WCI  27
CARO           CLOUDY    38  30  74 S7        29.80F WCI  32
DETROIT CITY   CLOUDY    40  37  89 SE8       29.88F FOG     WCI  34
DETROIT        DRIZZLE   39  36  89 SE9       29.88F FOG     WCI  33
FLINT          CLOUDY    38  32  79 S10       29.83F WCI  31
GROSSE ILE     MIX PCPN  42  38  84 SE8       29.89F
HILLSDALE      CLOUDY    40  38  93 SE6       29.83F FOG
HOWELL         CLOUDY    38  34  86 SE8       29.83F WCI  32

CITY           SKY/WX    TMP DP  RH WIND       PRES   REMARKS
JACKSON        CLOUDY    39  35  86 SE6       29.84S WCI  35
LAMBERTVILLE   LGT RAIN  42  41  98 CALM      29.89F
LANSING        CLOUDY    41  34  76 S12       29.82S
LAPEER         CLOUDY    38  32  78 S7        29.83F WCI  33
MASON          CLOUDY    37  34  87 S7        29.83S WCI  32
MONROE         DRIZZLE   38  38  97 CALM      29.88F
MT. CLEMENS    CLOUDY    40  40 100 SE12      29.86F WCI  33
PONTIAC        CLOUDY    38  34  85 SE8       29.84F WCI  32
PORT HOPE        N/A     38  31  76 S10G23    29.79F WCI  31
PORT HURON     CLOUDY    41  34  75 S12       29.86F
TRI CITIES     CLOUDY    38  31  76 S9        29.80F WCI  31
MIDLAND        CLOUDY    38  30  72 S6        29.79S WCI  34
TROY           CLOUDY    38  36  91 SE6       29.89F WCI  34
SAGINAW HB     CLOUDY    40  32  72 S8        29.81S WCI  34
$$
MIZ043>046-050>051-056>058-064>065-071>073-077>080-020000-
SOUTHWEST LOWER MICHIGAN

CITY           SKY/WX    TMP DP  RH WIND       PRES   REMARKS
BATTLE CREEK   CLOUDY    43  39  86 S9        29.82F
BENTON HARBOR  CLOUDY    45  40  82 S9        29.82R
BIG RAPIDS     CLOUDY    36  32  87 S5        29.75S WCI  32
COLDWATER      CLOUDY    40  39  95 S6        29.84R FOG
FREMONT        CLOUDY    41  39  93 S3        29.75S
HOLLAND        CLOUDY    44  41  89 S9        29.79S
GRAND RAPIDS   CLOUDY    42  40  92 S12       29.80S
IONIA          CLOUDY    40  35  83 S8        29.80S WCI  34
KALAMAZOO      CLOUDY    43  39  86 S6        29.82S
LUDINGTON      CLOUDY    46  42  86 SW18G25   29.71F
MARSHALL       CLOUDY    41  40  95 S5        29.82S
MOUNT PLEASANT CLOUDY    37  32  82 S6        29.78R WCI  32
MUSKEGON       CLOUDY    47  42  83 S17G29    29.77F
SOUTH HAVEN    CLOUDY    44  40  86 S7        29.81R
$$
MIZ016>042-020000-
NORTHERN LOWER MICHIGAN

CITY           SKY/WX    TMP DP  RH WIND       PRES   REMARKS
ALPENA         CLOUDY    35  30  82 S10G25    29.75F WCI  27
BEAVER ISLAND  CLOUDY    42  36  80 S8G18     29.62F
BELLAIRE       CLOUDY    38  32  77 S8        29.70S WCI  33
CADILLAC       CLOUDY    37  32  84 S8        29.71S WCI  30
CHARLEVOIX     CLOUDY    39  32  75 S12G20    29.65F WCI  32
FRANKFORT      CLOUDY    43  37  79 S10G20    29.69F
GAYLORD        CLOUDY    35  30  82 S13       29.68F WCI  26
GRAYLING       CLOUDY    34  32  94 CALM      29.72F
HARBOR SPRINGS CLOUDY    38  32  80 SW5       29.67S WCI  34
HOUGHTON LAKE  CLOUDY    34  29  82 S12G21    29.74F WCI  25
MANISTEE       CLOUDY    41  39  93 S6        29.70F
OSCODA         CLOUDY    37  31  79 S8        29.78F WCI  31
PELLSTON       CLOUDY    38  32  79 S6        29.67F WCI  33
ROGERS CITY    CLOUDY    34  32  92 S15G21    29.72S WCI  24
TRAVERSE CITY  CLOUDY    41  34  76 S7G17     29.67F
$$
MIZ007>008-015-020000-
EASTERN UPPER MICHIGAN

CITY           SKY/WX    TMP DP  RH WIND       PRES   REMARKS
KINROSS        CLOUDY    33  32  96 SE12      29.63F WCI  24
MACKINAC ISLAN CLOUDY    37  33  87 S10G16    29.65F WCI  29
NEWBERRY       CLOUDY    37  36  97 S16G22    29.57F WCI  27
S. S. MARIE    CLOUDY    34  31  88 SE9       29.63F WCI  27
$$
MIZ004>006-011>014-085-020000-
CENTRAL UPPER MICHIGAN

CITY           SKY/WX    TMP DP  RH WIND       PRES   REMARKS
MANISTIQUE     CLOUDY    40  37  87 SW13G20   29.59F WCI  33
ESCANABA       CLOUDY    37  34  89 SW8       29.60F WCI  31
MENOMINEE      CLOUDY    38  35  89 SW8       29.63F WCI  32
SAWYER-GWINN   CLOUDY    32  30  93 S13       29.52F WCI  22
$$
MIZ001>003-009>011-084-020000-
WESTERN UPPER MICHIGAN

CITY           SKY/WX    TMP DP  RH WIND       PRES   REMARKS
IRON MOUNTAIN  CLOUDY    34  30  85 S7        29.53F WCI  28
HOUGHTON       CLOUDY    37  32  82 S10       29.41F WCI  30
IRONWOOD       MOCLDY    39  34  82 S13       29.41F WCI  31
$$

ABBREVIATIONS USED IN REMARKS
   TC - TEMPERATURE IN CELSIUS
  WCI - WIND CHILL INDEX
   HX - HEAT INDEX
  VSB - VISIBILITY



 

View Past Reports for Detroit, MI.

Products Courtesy of NOAA-NWS
NWS Information Parsing Script by Ken True at Saratoga Weather - Script by SE Lincoln Weather.